• In Schweiz
  • Länderverzeichnis
  • Für 7 Tage
  • Wassertemperatur
  • Satellitenkarten
  • Wetterkarte
  • Widgets
  • user-avatar
    Anmelden

    Stündliche Wetter Porto Alegre

    Heute, 14 November, Mittwoch

    Zeit Temperatur Niederschläge Wind Luftdruck Luftfeuchtigkeit
    00:00 +26°C° 0.8 mm 1 m/S 751 mmHg 90%
    01:00 +26°C° 1.1 mm 1 m/S 751 mmHg 91%
    02:00 +26°C° 1.1 mm 2 m/S 751 mmHg 93%
    03:00 +26°C° 1.1 mm 2 m/S 751 mmHg 94%
    04:00 +26°C° 0.1 mm 2 m/S 750 mmHg 93%
    05:00 +26°C° 0.1 mm 2 m/S 750 mmHg 92%
    06:00 +26°C° 0.1 mm 2 m/S 750 mmHg 91%
    07:00 +27°C° 0.2 mm 2 m/S 750 mmHg 89%
    08:00 +27°C° 0.2 mm 3 m/S 750 mmHg 87%
    09:00 +28°C° 0.2 mm 4 m/S 751 mmHg 84%
    10:00 +29°C° 0.2 mm 4 m/S 751 mmHg 77%
    11:00 +30°C° 0.2 mm 4 m/S 751 mmHg 70%
    12:00 +32°C° 0.2 mm 4 m/S 751 mmHg 63%
    13:00 +32°C° 0 mm 4 m/S 750 mmHg 58%
    14:00 +33°C° 0 mm 5 m/S 750 mmHg 53%
    15:00 +33°C° 0 mm 5 m/S 750 mmHg 48%
    16:00 +30°C° 0 mm 5 m/S 751 mmHg 49%
    17:00 +29°C° 0 mm 4 m/S 751 mmHg 50%
    18:00 +28°C° 0 mm 4 m/S 752 mmHg 52%
    19:00 +26°C° 0 mm 4 m/S 753 mmHg 55%
    20:00 +25°C° 0 mm 3 m/S 753 mmHg 58%
    21:00 +22°C° 0 mm 3 m/S 754 mmHg 62%
    22:00 +22°C° 0 mm 3 m/S 755 mmHg 64%
    23:00 +21°C° 0 mm 2 m/S 755 mmHg 67%

    Morgen, 15 November, Donnerstag

    Zeit Temperatur Niederschläge Wind Luftdruck Luftfeuchtigkeit
    00:00 +20°C° 0 mm 2 m/S 755 mmHg 69%
    01:00 +20°C° 0 mm 2 m/S 755 mmHg 71%
    02:00 +19°C° 0 mm 2 m/S 755 mmHg 73%
    03:00 +19°C° 0 mm 2 m/S 755 mmHg 75%
    04:00 +18°C° 0 mm 2 m/S 755 mmHg 77%
    05:00 +18°C° 0 mm 2 m/S 755 mmHg 79%
    06:00 +18°C° 0 mm 2 m/S 756 mmHg 81%
    07:00 +20°C° 0 mm 2 m/S 756 mmHg 70%
    08:00 +24°C° 0 mm 2 m/S 756 mmHg 60%
    09:00 +26°C° 0 mm 2 m/S 757 mmHg 50%
    10:00 +28°C° 0 mm 2 m/S 757 mmHg 44%
    11:00 +29°C° 0 mm 1 m/S 756 mmHg 38%
    12:00 +31°C° 0 mm 1 m/S 756 mmHg 32%
    13:00 +31°C° 0 mm 1 m/S 756 mmHg 32%
    14:00 +32°C° 0 mm 1 m/S 756 mmHg 31%
    15:00 +32°C° 0 mm 2 m/S 755 mmHg 31%
    16:00 +31°C° 0 mm 2 m/S 755 mmHg 36%
    17:00 +29°C° 0 mm 2 m/S 755 mmHg 42%
    18:00 +28°C° 0 mm 2 m/S 755 mmHg 47%
    19:00 +26°C° 0 mm 2 m/S 756 mmHg 52%
    20:00 +25°C° 0 mm 2 m/S 757 mmHg 56%
    21:00 +22°C° 0 mm 3 m/S 758 mmHg 60%
    22:00 +21°C° 0 mm 2 m/S 758 mmHg 63%
    23:00 +21°C° 0 mm 2 m/S 758 mmHg 65%

    übermorgen, 16 November, Freitag

    Zeit Temperatur Niederschläge Wind Luftdruck Luftfeuchtigkeit
    00:00 +20°C° 0 mm 2 m/S 758 mmHg 67%
    01:00 +20°C° 0 mm 2 m/S 758 mmHg 68%
    02:00 +19°C° 0 mm 2 m/S 758 mmHg 68%
    03:00 +20°C° 0 mm 1 m/S 758 mmHg 68%
    04:00 +19°C° 0 mm 1 m/S 758 mmHg 68%
    05:00 +19°C° 0 mm 1 m/S 758 mmHg 69%
    06:00 +17°C° 0 mm 0 m/S 759 mmHg 69%
    07:00 +22°C° 0 mm 1 m/S 759 mmHg 60%
    08:00 +25°C° 0 mm 1 m/S 760 mmHg 50%
    09:00 +28°C° 0 mm 1 m/S 760 mmHg 41%
    10:00 +29°C° 0 mm 2 m/S 760 mmHg 37%
    11:00 +31°C° 0 mm 2 m/S 760 mmHg 32%
    12:00 +33°C° 0 mm 3 m/S 760 mmHg 28%
    13:00 +33°C° 0 mm 4 m/S 759 mmHg 28%
    14:00 +33°C° 0 mm 4 m/S 759 mmHg 29%
    15:00 +33°C° 0 mm 5 m/S 758 mmHg 30%
    16:00 +30°C° 0 mm 5 m/S 758 mmHg 36%
    17:00 +28°C° 0 mm 5 m/S 758 mmHg 42%
    18:00 +26°C° 0 mm 5 m/S 758 mmHg 48%
    19:00 +25°C° 0 mm 5 m/S 759 mmHg 54%
    20:00 +23°C° 0 mm 5 m/S 759 mmHg 60%
    21:00 +22°C° 0 mm 5 m/S 760 mmHg 66%
    22:00 +21°C° 0 mm 4 m/S 759 mmHg 67%
    23:00 +21°C° 0 mm 4 m/S 759 mmHg 69%

    17 November, Samstag

    Zeit Temperatur Niederschläge Wind Luftdruck Luftfeuchtigkeit
    00:00 +21°C° 0 mm 4 m/S 759 mmHg 71%
    01:00 +20°C° 0 mm 3 m/S 759 mmHg 72%
    02:00 +20°C° 0 mm 3 m/S 758 mmHg 73%
    03:00 +20°C° 0 mm 3 m/S 758 mmHg 74%
    04:00 +20°C° 0 mm 3 m/S 758 mmHg 75%
    05:00 +19°C° 0 mm 3 m/S 758 mmHg 75%
    06:00 +19°C° 0 mm 3 m/S 758 mmHg 75%
    07:00 +22°C° 0 mm 3 m/S 757 mmHg 66%
    08:00 +25°C° 0 mm 3 m/S 757 mmHg 56%
    09:00 +28°C° 0 mm 3 m/S 757 mmHg 47%
    10:00 +30°C° 0 mm 3 m/S 757 mmHg 42%
    11:00 +34°C° 0 mm 2 m/S 756 mmHg 38%
    12:00 +36°C° 0 mm 2 m/S 755 mmHg 34%
    13:00 +37°C° 0 mm 2 m/S 755 mmHg 34%
    14:00 +37°C° 0 mm 3 m/S 754 mmHg 34%
    15:00 +38°C° 0 mm 3 m/S 753 mmHg 34%
    16:00 +36°C° 0 mm 3 m/S 752 mmHg 40%
    17:00 +35°C° 0 mm 2 m/S 752 mmHg 47%
    18:00 +32°C° 0 mm 2 m/S 752 mmHg 53%
    19:00 +30°C° 1.4 mm 2 m/S 752 mmHg 63%
    20:00 +28°C° 1.4 mm 2 m/S 752 mmHg 73%
    21:00 +26°C° 1.4 mm 2 m/S 751 mmHg 84%
    22:00 +26°C° 3 mm 1 m/S 751 mmHg 86%
    23:00 +25°C° 3 mm 1 m/S 751 mmHg 89%

    18 November, Sonntag

    Zeit Temperatur Niederschläge Wind Luftdruck Luftfeuchtigkeit
    00:00 +25°C° 3 mm 1 m/S 751 mmHg 91%
    01:00 +25°C° 4 mm 1 m/S 751 mmHg 93%
    02:00 +25°C° 4 mm 1 m/S 751 mmHg 94%
    03:00 +24°C° 4 mm 1 m/S 751 mmHg 95%
    04:00 +24°C° 4.7 mm 1 m/S 751 mmHg 95%
    05:00 +24°C° 4.7 mm 1 m/S 751 mmHg 95%
    06:00 +24°C° 4.7 mm 1 m/S 751 mmHg 95%
    07:00 +24°C° 7.4 mm 1 m/S 751 mmHg 95%
    08:00 +24°C° 7.4 mm 2 m/S 751 mmHg 95%
    09:00 +24°C° 7.4 mm 2 m/S 751 mmHg 95%
    10:00 +22°C° 2.1 mm 3 m/S 752 mmHg 94%
    11:00 +22°C° 2.1 mm 4 m/S 752 mmHg 93%
    12:00 +21°C° 2.1 mm 5 m/S 752 mmHg 91%
    13:00 +20°C° 0.6 mm 5 m/S 753 mmHg 90%
    14:00 +19°C° 0.6 mm 5 m/S 754 mmHg 88%
    15:00 +18°C° 0.6 mm 4 m/S 755 mmHg 87%
    16:00 +19°C° 0.2 mm 4 m/S 755 mmHg 83%
    17:00 +19°C° 0.2 mm 3 m/S 756 mmHg 79%
    18:00 +19°C° 0.2 mm 3 m/S 757 mmHg 76%
    19:00 +18°C° 0 mm 3 m/S 757 mmHg 76%
    20:00 +17°C° 0 mm 3 m/S 758 mmHg 76%
    21:00 +16°C° 0 mm 2 m/S 759 mmHg 76%
    22:00 +15°C° 0 mm 2 m/S 759 mmHg 77%
    23:00 +15°C° 0 mm 2 m/S 760 mmHg 77%

    19 November, Montag

    Zeit Temperatur Niederschläge Wind Luftdruck Luftfeuchtigkeit
    00:00 +15°C° 0 mm 2 m/S 760 mmHg 77%
    01:00 +14°C° 0 mm 2 m/S 760 mmHg 78%
    02:00 +14°C° 0 mm 2 m/S 760 mmHg 79%
    03:00 +13°C° 0 mm 2 m/S 760 mmHg 80%
    04:00 +13°C° 0 mm 2 m/S 760 mmHg 81%
    05:00 +13°C° 0 mm 1 m/S 760 mmHg 82%
    06:00 +13°C° 0 mm 1 m/S 760 mmHg 83%
    07:00 +16°C° 0 mm 1 m/S 761 mmHg 74%
    08:00 +19°C° 0 mm 1 m/S 761 mmHg 66%
    09:00 +22°C° 0 mm 1 m/S 761 mmHg 57%
    10:00 +23°C° 0 mm 1 m/S 761 mmHg 54%
    11:00 +23°C° 0 mm 1 m/S 761 mmHg 52%
    12:00 +24°C° 0 mm 2 m/S 761 mmHg 50%
    13:00 +25°C° 0 mm 2 m/S 760 mmHg 50%
    14:00 +25°C° 0 mm 2 m/S 760 mmHg 50%
    15:00 +25°C° 0 mm 2 m/S 759 mmHg 50%
    16:00 +25°C° 0 mm 3 m/S 759 mmHg 55%
    17:00 +24°C° 0 mm 3 m/S 759 mmHg 60%
    18:00 +22°C° 0 mm 3 m/S 759 mmHg 65%
    19:00 +21°C° 0 mm 3 m/S 759 mmHg 69%
    20:00 +19°C° 0 mm 3 m/S 760 mmHg 73%
    21:00 +18°C° 0 mm 3 m/S 760 mmHg 77%
    22:00 +17°C° 0 mm 3 m/S 760 mmHg 78%
    23:00 +17°C° 0 mm 3 m/S 760 mmHg 79%
    Mehr zeigen